EW6762 Weather Reports


Display with metric or nautical units.
time (UTC)temp
F
wind
direction
speed
MPH
gust
MPH
rain 1hr
in
rain 24hr
in
rain mn
in
humidity
%
barometer
mb
20260509213323 78 162 4.0 10.0 0.00 0.08 0.02 71 1011.1
20260509212319 78 138 5.0 8.0 0.00 0.08 0.02 70 1011.3
20260509211311 78 186 3.0 9.0 0.00 0.08 0.02 70 1011.2
20260509210312 78 209 3.0 10.0 0.00 0.08 0.02 70 1011.2
20260509205330 78 120 2.0 9.0 0.00 0.08 0.02 71 1011.0
20260509204343 77 273 4.0 8.0 0.00 0.08 0.02 72 1010.9
20260509203324 77 235 4.0 8.0 0.00 0.08 0.02 71 1011.0
20260509202320 77 135 4.0 11.0 0.00 0.08 0.02 72 1011.0
20260509201320 78 217 6.0 10.0 0.00 0.08 0.02 71 1011.3
20260509200333 77 234 4.0 8.0 0.00 0.08 0.02 74 1011.2
20260509195328 76 178 3.0 5.0 0.00 0.08 0.02 75 1011.3
20260509194319 76 132 3.0 8.0 0.00 0.08 0.02 75 1011.6
20260509193316 76 128 3.0 8.0 0.00 0.08 0.02 76 1011.6
20260509192327 75 157 2.0 6.0 0.00 0.08 0.02 76 1011.8
20260509191326 75 203 3.0 5.0 0.00 0.08 0.02 77 1011.9
20260509190343 75 211 3.0 5.0 0.00 0.08 0.02 76 1011.9
20260509185322 75 147 3.0 5.0 0.00 0.08 0.02 75 1011.9
20260509184311 75 211 3.0 7.0 0.00 0.08 0.02 75 1012.1
20260509183309 76 174 3.0 6.0 0.00 0.08 0.02 74 1012.1
20260509182309 75 169 3.0 7.0 0.00 0.08 0.02 73 1012.0
20260509181323 75 234 4.0 10.0 0.00 0.08 0.02 74 1012.1
20260509180326 74 161 2.0 6.0 0.00 0.08 0.02 75 1012.4
20260509175314 74 228 3.0 8.0 0.00 0.08 0.02 74 1012.6
20260509174316 75 273 3.0 8.0 0.00 0.08 0.02 73 1012.6
20260509173309 75 201 2.0 7.0 0.00 0.08 0.02 73 1012.7
20260509172331 75 132 4.0 11.0 0.00 0.08 0.02 72 1012.7
20260509171321 76 231 4.0 7.0 0.00 0.08 0.02 72 1012.9
20260509170339 75 159 4.0 9.0 0.00 0.08 0.02 73 1012.8
20260509165328 74 125 3.0 8.0 0.00 0.08 0.02 75 1012.9
20260509164330 74 180 3.0 10.0 0.00 0.08 0.02 71 1012.9
20260509163326 74 171 4.0 9.0 0.00 0.08 0.02 69 1013.3
20260509162319 74 143 4.0 9.0 0.00 0.08 0.02 68 1013.2
20260509161321 75 148 6.0 11.0 0.00 0.08 0.02 68 1013.1
20260509160315 74 117 5.0 11.0 0.00 0.08 0.02 72 1013.1
20260509155349 73 163 4.0 8.0 0.00 0.08 0.02 76 1013.2
20260509154323 72 112 5.0 8.0 0.00 0.08 0.02 77 1013.4
20260509153311 71 142 2.0 7.0 0.00 0.08 0.02 78 1013.7
20260509152327 70 92 2.0 7.0 0.00 0.08 0.02 77 1013.9
20260509151320 69 155 2.0 4.0 0.00 0.08 0.02 80 1014.0
20260509150340 69 155 2.0 4.0 0.00 0.08 0.02 79 1014.2
20260509145310 69 59 2.0 4.0 0.00 0.08 0.02 81 1014.5
20260509144328 68 153 2.0 7.0 0.00 0.08 0.02 81 1014.5
20260509143337 67 121 2.0 5.0 0.00 0.08 0.02 85 1014.5
20260509142317 66 140 4.0 7.0 0.00 0.08 0.02 87 1014.4
20260509141333 66 165 2.0 5.0 0.04 0.08 0.02 90 1014.4
20260509140326 65 151 2.0 5.0 0.04 0.08 0.02 90 1014.5
20260509135327 65 123 1.0 6.0 0.04 0.12 0.02 91 1014.4
20260509134320 65 94 2.0 4.0 0.04 0.12 0.02 94 1014.5
20260509133308 63 5 1.0 3.0 0.04 0.12 0.02 94 1015.1
20260509132349 62 180 1.0 3.0 0.04 0.12 0.02 94 1015.4
20260509131330 62 70 2.0 5.0 0.00 0.08 0.01 94 1014.8
20260509130326 61 150 2.0 3.0 0.04 0.08 0.01 93 1015.6
20260509125327 61 89 0.0 4.0 0.04 0.08 0.01 94 1015.5
20260509124338 61 155 1.0 5.0 0.04 0.08 0.01 94 1015.7
20260509123320 60 177 2.0 3.0 0.04 0.08 0.01 94 1015.6
20260509122310 60 147 2.0 5.0 0.04 0.08 0.01 94 1015.1
20260509121312 60 143 1.0 3.0 0.04 0.08 0.01 94 1014.9
20260509120309 59 144 1.0 3.0 0.00 0.04 0.00 93 1014.9
20260509115330 59 133 2.0 5.0 0.00 0.04 0.00 94 1015.0
20260509114327 59 88 0.0 4.0 0.00 0.04 0.00 94 1015.0
20260509113322 58 114 2.0 4.0 0.00 0.04 0.00 94 1014.6
20260509112325 58 94 1.0 3.0 0.00 0.04 0.00 94 1014.6
20260509111322 57 102 0.0 5.0 0.00 0.04 0.00 94 1014.6
20260509110344 57 78 0.0 2.0 0.00 0.04 0.00 94 1014.6
20260509105324 57 76 0.0 1.0 0.00 0.04 0.00 93 1014.5
20260509104321 57 76 0.0 2.0 0.00 0.04 0.00 93 1014.5
20260509103323 57 83 1.0 3.0 0.00 0.04 0.00 92 1014.2
20260509102319 57 100 1.0 3.0 0.00 0.04 0.00 92 1014.1
20260509101314 57 93 1.0 2.0 0.00 0.04 0.00 92 1014.1
20260509100316 57 107 1.0 2.0 0.00 0.04 0.00 93 1014.1
20260509095318 57 86 1.0 3.0 0.00 0.04 0.00 92 1014.0
20260509094332 57 98 0.0 1.0 0.00 0.04 0.00 92 1013.8
20260509093311 57 38 1.0 2.0 0.00 0.04 0.00 91 1013.9
20260509092326 57 70 1.0 3.0 0.00 0.04 0.00 91 1013.8
20260509091326 57 75 1.0 2.0 0.00 0.04 0.00 91 1013.9
20260509090319 58 90 1.0 3.0 0.00 0.04 0.00 91 1014.0
20260509085312 58 84 1.0 3.0 0.00 0.04 0.00 91 1014.0
20260509084310 58 88 2.0 3.0 0.00 0.04 0.00 91 1014.2
20260509083322 58 96 2.0 3.0 0.00 0.04 0.00 91 1014.5
20260509082324 58 86 1.0 2.0 0.00 0.04 0.00 91 1014.6
20260509081317 58 59 1.0 2.0 0.00 0.04 0.00 90 1014.6
20260509080337 59 67 0.0 3.0 0.00 0.04 0.00 90 1014.6
20260509075313 59 48 0.0 2.0 0.00 0.04 0.00 89 1014.7
20260509074328 59 123 1.0 2.0 0.00 0.04 0.00 89 1014.9
20260509073320 59 168 1.0 2.0 0.00 0.04 0.00 88 1015.1
20260509072340 60 105 1.0 2.0 0.00 0.04 0.00 88 1015.1
20260509071314 60 137 1.0 5.0 0.00 0.04 0.00 87 1015.2
20260509070315 60 171 1.0 3.0 0.00 0.04 0.00 87 1015.1
20260509065325 60 142 1.0 3.0 0.00 0.04 0.00 87 1015.3
20260509064322 61 135 1.0 3.0 0.00 0.04 0.00 86 1015.4
20260509063312 61 107 1.0 2.0 0.00 0.04 0.00 85 1015.6
20260509062331 61 140 1.0 3.0 0.00 0.04 0.00 85 1015.6
20260509061329 62 147 2.0 3.0 0.00 0.04 0.00 84 1015.7
20260509060322 62 136 1.0 2.0 0.00 0.04 0.00 84 1015.7
20260509055315 62 148 1.0 3.0 0.00 0.04 0.00 83 1015.8
20260509054311 62 146 2.0 4.0 0.00 0.04 0.00 83 1016.2
20260509053326 63 155 2.0 3.0 0.00 0.04 0.00 82 1016.2
20260509052327 63 155 2.0 6.0 0.00 0.04 0.00 82 1016.3
20260509051322 63 134 1.0 5.0 0.00 0.04 0.00 82 1016.4
20260509050318 63 139 2.0 6.0 0.00 0.04 0.00 81 1016.3
20260509045318 63 163 2.0 5.0 0.00 0.04 0.00 81 1016.6
20260509044317 63 144 4.0 7.0 0.00 0.04 0.00 81 1016.5
20260509043313 63 180 3.0 7.0 0.00 0.04 0.00 80 1016.6
20260509042313 63 123 3.0 7.0 0.00 0.04 0.00 80 1016.5
20260509041324 63 153 2.0 8.0 0.00 0.04 0.00 79 1016.6
20260509040324 63 144 3.0 7.0 0.00 0.04 0.00 79 1016.6
20260509035318 63 133 3.0 7.0 0.00 0.04 0.01 78 1016.7
20260509034324 64 127 2.0 6.0 0.00 0.04 0.01 77 1016.6
20260509033321 64 129 2.0 6.0 0.00 0.04 0.01 76 1016.6
20260509032340 64 148 3.0 7.0 0.00 0.04 0.01 76 1016.8
20260509031315 64 127 2.0 6.0 0.00 0.04 0.01 76 1016.8
20260509030337 64 113 3.0 5.0 0.00 0.04 0.01 76 1016.9
20260509025311 64 148 3.0 7.0 0.00 0.08 0.01 75 1016.9
20260509024332 64 140 4.0 7.0 0.00 0.08 0.01 76 1016.9
20260509023326 65 155 3.0 7.0 0.00 0.08 0.01 75 1016.9
20260509022324 65 144 3.0 8.0 0.00 0.08 0.01 74 1017.0
20260509021348 65 104 3.0 7.0 0.00 0.08 0.01 73 1016.8
20260509020321 66 136 3.0 8.0 0.00 0.08 0.01 71 1016.9
20260509015323 66 155 4.0 7.0 0.00 0.20 0.01 67 1016.8
20260509014322 67 153 1.0 3.0 0.00 0.20 0.01 65 1016.7
20260509013326 67 154 1.0 3.0 0.00 0.20 0.01 65 1016.4
20260509012321 67 163 1.0 3.0 0.00 0.20 0.01 63 1016.3
20260509011319 67 191 2.0 4.0 0.00 0.20 0.01 63 1016.2
20260509010320 68 171 1.0 4.0 0.00 0.20 0.01 62 1016.0
20260509005338 68 173 2.0 3.0 0.00 1.22 0.01 61 1016.0
20260509004317 68 189 1.0 3.0 0.00 1.22 0.01 60 1015.8
20260509003311 68 149 1.0 3.0 0.00 1.22 0.01 60 1015.7
20260509002309 69 103 1.0 3.0 0.00 1.22 0.01 59 1015.7
20260509001309 69 108 2.0 3.0 0.00 1.22 0.01 60 1015.5
20260509000352 70 153 1.0 3.0 0.00 1.22 0.01 59 1015.3
20260508235309 70 146 2.0 3.0 0.00 1.22 0.01 57 1015.4
20260508234326 71 147 2.0 3.0 0.00 1.22 0.01 56 1015.5
20260508233349 71 184 2.0 4.0 0.00 1.22 0.01 55 1015.5
20260508232330 71 132 1.0 4.0 0.00 1.22 0.01 55 1015.7
20260508231327 72 144 2.0 5.0 0.00 1.22 0.01 54 1015.4
20260508230348 72 144 1.0 4.0 0.00 1.22 0.01 55 1015.5
20260508225322 72 147 2.0 5.0 0.00 1.22 0.01 53 1015.6
20260508224323 73 144 2.0 6.0 0.00 1.22 0.01 51 1015.5
20260508223323 73 142 2.0 5.0 0.00 1.22 0.01 50 1015.4
20260508222345 74 119 2.0 4.0 0.00 1.22 0.01 49 1015.3
20260508221319 75 81 1.0 4.0 0.00 1.22 0.01 50 1015.3
20260508220317 75 121 3.0 7.0 0.00 1.22 0.01 48 1015.3
20260508215319 75 38 3.0 5.0 0.00 1.22 0.01 48 1015.2
20260508214315 76 95 4.0 8.0 0.00 1.22 0.01 46 1015.3